x

8777812 - Rincon Del San Jose; Potrero Lopeno Sw, Tx (rsjt2) Weather Station

1:42pm - Fri 19th Jan 2018 All times are CST. -6 hours from GMT.

  • Wind
    10mph, 13mph gusts
  • Sea Temp 44°f
  • Air Temp 46°f
  • Sea Pressure 1020.2mb
  • 8777812 - Rincon Del San Jose; Potrero Lopeno Sw, Tx
  • 8777812 - Rincon Del San Jose; Potrero Lopeno Sw, Tx

More Historic Weather Station data

Upgrade to MSW Pro to gain access to the past 30 days of data for over 8000 Wavebouys and Weather Stations around the globe.

Join

Comparision Forecast

View Surf forecast
   
Fri 01/19 1:42pm 10 13 mph 1020.2mb 44f 46f
1:36pm 11 13 mph 1020.4mb 44f 46f
1:30pm 10 13 mph 1020.5mb 44f 46f
1:24pm 10 13 mph 1020.6mb 44f 46f
1:18pm 10 13 mph 1020.8mb 44f 46f
1:12pm 10 13 mph 1020.9mb 44f 46f
1:06pm 9 11 mph 1021mb 44f 46f
1:00pm 10 11 mph 1021.1mb 44f 45f
12:48pm 9 11 mph 1021.4mb 44f 45f
12:42pm 9 10 mph 1021.5mb 44f 45f
12:36pm 8 9 mph 1021.7mb 44f 45f
12:30pm 8 11 mph 1021.9mb 44f 45f
12:24pm 11 13 mph 1022mb 44f 45f
12:18pm 9 11 mph 1022.1mb 44f 45f
12:12pm 9 11 mph 1022.3mb 44f 44f
12:06pm 9 13 mph 1022.5mb 44f 45f
12:00pm 10 11 mph 1022.6mb 44f 44f
11:54am 10 13 mph 1022.6mb 44f 44f
11:48am 10 13 mph 1022.8mb 44f 44f
11:42am 11 14 mph 1022.9mb 44f 44f
11:36am 13 15 mph 1023mb 44f 44f
11:30am 13 14 mph 1023.1mb 44f 44f
11:24am 13 14 mph 1023.1mb 44f 44f
11:18am 14 15 mph 1023.2mb 44f 44f
11:12am 13 14 mph 1023.2mb 44f 43f
11:06am 13 14 mph 1023.3mb 44f 43f
11:00am 13 14 mph 1023.3mb 43f 43f
10:54am 14 15 mph 1023.5mb 43f 43f
10:48am 13 14 mph 1023.7mb 43f 43f
10:42am 14 15 mph 1023.7mb 43f 43f
10:36am 14 15 mph 1023.7mb 43f 43f
10:30am 13 15 mph 1023.8mb 43f 42f
10:24am 13 15 mph 1023.8mb 43f 42f
10:00am 13 15 mph 1024.1mb 43f 42f
9:54am 13 15 mph 1024mb 43f 42f
9:48am 14 15 mph 1024mb 43f 42f
9:42am 13 14 mph 1023.8mb 43f 41f
9:36am 13 15 mph 1023.9mb 43f 41f
9:30am 14 16 mph 1023.8mb 43f 41f
9:24am 14 16 mph 1023.7mb 43f 41f
9:18am 14 17 mph 1023.7mb 43f 41f
9:12am 15 17 mph 1023.8mb 43f 41f
9:06am 15 17 mph 1023.7mb 43f 41f
9:00am 14 16 mph 1023.6mb 43f 41f
8:54am 15 17 mph 1023.5mb 43f 41f
8:48am 14 16 mph 1023.5mb 43f 41f
8:42am 14 15 mph 1023.6mb 43f 41f
8:36am 14 16 mph 1023.6mb 43f 41f
8:30am 14 17 mph 1023.3mb 43f 41f
8:24am 14 17 mph 1023.4mb 43f 41f
8:18am 15 18 mph 1023.3mb 43f 40f
8:12am 15 17 mph 1023.3mb 43f 40f
8:06am 14 17 mph 1023.4mb 43f 41f
8:00am 14 16 mph 1023.3mb 43f 40f
7:54am 13 14 mph 1023.2mb 43f 40f
7:48am 11 15 mph 1023.2mb 43f 40f
7:42am 14 15 mph 1023.3mb 43f 40f
7:36am 14 16 mph 1023.2mb 43f 40f
7:30am 14 15 mph 1023mb 43f 40f
7:24am 14 15 mph 1022.9mb 43f 40f
7:18am 15 17 mph 1022.8mb 43f 40f
7:12am 15 17 mph 1022.8mb 43f 40f
7:06am 15 17 mph 1022.7mb 43f 40f
6:48am 14 16 mph 1022.6mb 43f 40f
6:42am 14 15 mph 1022.7mb 43f 40f
6:36am 13 15 mph 1022.5mb 43f 40f
6:30am 13 14 mph 1022.5mb 43f 40f
6:24am 11 13 mph 1022.5mb 43f 40f
6:18am 13 15 mph 1022.6mb 43f 41f
6:12am 14 16 mph 1022.6mb 43f 40f
6:06am 14 15 mph 1022.6mb 43f 40f
6:00am 14 15 mph 1022.6mb 43f 40f
5:54am 14 16 mph 1022.5mb 43f 40f
5:48am 14 16 mph 1022.5mb 43f 40f
5:42am 14 16 mph 1022.5mb 43f 40f
5:36am 14 16 mph 1022.4mb 43f 40f
5:30am 14 16 mph 1022.4mb 43f 41f
5:24am 14 15 mph 1022.4mb 43f 41f
5:18am 13 14 mph 1022.4mb 43f -
5:12am 11 14 mph 1022.5mb 43f 41f
5:06am 11 14 mph 1022.6mb 43f 41f
5:00am 11 15 mph 1022.6mb 43f 41f
4:54am 13 16 mph 1022.7mb 43f 41f
4:48am 14 17 mph 1022.8mb 43f 41f
4:42am 15 16 mph 1022.8mb 43f 41f
4:36am 13 15 mph 1022.9mb 43f 41f
4:30am 13 15 mph 1022.9mb 43f 41f
4:24am 15 16 mph 1022.8mb 43f 41f
4:18am 14 16 mph 1023mb 43f 41f
4:12am 14 15 mph 1023mb 43f 41f
4:06am 13 14 mph 1023.1mb 43f 41f
4:00am 11 14 mph 1023.1mb 43f 41f
3:54am 13 15 mph 1023.1mb 43f 41f
3:48am 14 15 mph 1023.1mb 43f -
3:42am 14 15 mph 1023.1mb 43f 41f
3:36am 13 16 mph 1023.2mb 43f 41f
3:30am 14 15 mph 1023.2mb 43f 41f
3:24am 14 17 mph 1023.3mb 43f 41f
3:18am 15 17 mph 1023.3mb 42f 40f
3:12am 14 16 mph 1023.4mb 42f 40f
3:06am 14 17 mph 1023.5mb 42f 40f
3:00am 15 17 mph 1023.6mb 42f 40f
2:54am 14 17 mph 1023.8mb 42f 40f
2:48am 14 16 mph 1023.9mb 42f 40f
2:42am 15 16 mph 1023.8mb 42f 40f
2:36am 14 17 mph 1023.9mb 42f 40f
2:30am 15 17 mph 1024.1mb 42f 40f
2:24am 15 17 mph 1024.3mb 42f 40f
2:18am 14 16 mph 1024.4mb 42f 40f
2:12am 15 17 mph 1024.5mb 42f 40f
2:06am 14 16 mph 1024.6mb 42f 40f
2:00am 15 16 mph 1024.6mb 42f 40f
1:54am 15 18 mph 1024.7mb 42f 41f
1:48am 15 17 mph 1024.7mb 42f 41f
1:42am 16 18 mph 1024.7mb 42f 40f
1:36am 15 18 mph 1025mb 42f 41f
1:30am 15 17 mph 1025mb 42f 41f
1:24am 14 18 mph 1025.1mb 42f 41f
1:18am 16 17 mph 1025.1mb 42f 41f
1:12am 15 17 mph 1025.2mb 42f 41f
1:06am 14 17 mph 1025.3mb 42f 41f
1:00am 16 18 mph 1025.4mb 42f 41f
12:54am 16 17 mph 1025.4mb 42f 41f
12:48am 15 17 mph 1025.5mb 42f -
12:42am 16 18 mph 1025.6mb 42f -
12:36am 17 20 mph 1025.7mb 42f -
12:30am 18 21 mph 1025.8mb 42f 41f
12:24am 16 21 mph 1025.8mb 42f 40f
12:18am 17 22 mph 1025.9mb 42f 40f
12:12am 20 22 mph 1025.8mb 42f 40f
12:06am 20 22 mph 1025.9mb 42f 40f
12:00am 16 23 mph 1025.9mb 42f 40f
Thu 01/18 11:54pm 18 21 mph 1026mb 42f 40f
11:48pm 18 22 mph 1026.2mb 42f 40f
11:42pm 21 23 mph 1026.3mb 42f 40f
11:36pm 16 21 mph 1026.5mb 42f 41f
11:30pm 16 20 mph 1026.5mb 42f 41f
11:24pm 21 23 mph 1026.6mb 42f 41f
11:18pm 17 22 mph 1026.6mb 42f 41f
11:12pm 20 23 mph 1026.7mb 42f 41f
11:06pm 18 22 mph 1026.8mb 42f 42f
11:00pm 17 22 mph 1026.8mb 42f 42f
10:54pm 16 20 mph 1027mb 42f 42f
10:48pm 18 22 mph 1027mb 42f 42f
10:42pm 18 22 mph 1027mb 42f 42f
10:36pm 17 21 mph 1027mb 42f 42f
10:30pm 17 22 mph 1027mb 42f 42f
10:24pm 20 22 mph 1027.1mb 42f 42f
10:00pm 20 22 mph 1027.2mb 42f 42f
9:48pm 14 20 mph 1027.3mb 42f 42f
9:42pm 17 20 mph 1027.3mb 42f 42f
9:36pm 17 20 mph 1027.3mb 42f 42f
9:30pm 17 21 mph 1027.3mb 42f 42f
9:24pm 14 16 mph 1027.5mb 42f 42f
9:18pm 13 18 mph 1027.4mb 42f 42f
9:12pm 16 20 mph 1027.3mb 42f 42f
9:06pm 15 17 mph 1027.3mb 42f 42f
9:00pm 16 18 mph 1027.3mb 42f 42f
8:54pm 15 17 mph 1027.3mb 42f 42f
8:48pm 15 20 mph 1027.2mb 42f 42f
8:42pm 17 20 mph 1027.1mb 42f 42f
8:36pm 16 18 mph 1027.2mb 42f 42f
8:30pm 15 18 mph 1027.2mb 42f 42f
8:24pm 16 18 mph 1027.2mb 42f 43f
8:18pm 15 18 mph 1027.1mb 42f 43f
8:12pm 16 18 mph 1027.2mb 42f 43f
8:06pm 14 17 mph 1027.2mb 42f 42f
8:00pm 14 16 mph 1027.1mb 42f 42f
7:54pm 16 18 mph 1027mb 42f 42f
7:48pm 15 18 mph 1026.9mb 42f 42f
7:42pm 15 17 mph 1026.9mb 42f 42f
7:36pm 14 17 mph 1026.8mb 42f 42f
7:30pm 14 17 mph 1026.9mb 42f 42f
7:24pm 16 20 mph 1027mb 42f 42f
7:18pm 16 21 mph 1026.9mb 42f 42f
7:12pm 15 20 mph 1027mb 42f 42f
7:06pm 17 22 mph 1027mb 42f 43f
7:00pm 18 23 mph 1026.9mb 42f 42f
6:54pm 22 24 mph 1026.9mb 42f 42f
6:48pm 18 23 mph 1027mb 42f 43f
6:42pm 17 22 mph 1027mb 42f 43f
6:36pm 21 24 mph 1026.9mb 42f 43f
6:30pm 20 24 mph 1026.9mb 42f 43f
6:24pm 20 23 mph 1026.8mb 42f 43f
6:18pm 21 22 mph 1026.8mb 42f 43f
6:12pm 18 22 mph 1026.9mb 42f 43f
6:06pm 18 21 mph 1027mb 42f 43f
6:00pm 18 21 mph 1027mb 42f 43f
5:54pm 20 22 mph 1027mb 42f 43f
5:48pm 18 24 mph 1027.1mb 42f 43f
5:42pm 18 22 mph 1027mb 42f 43f
5:36pm 21 23 mph 1027mb 42f 43f
5:30pm 17 20 mph 1027.1mb 42f 43f
5:24pm 16 18 mph 1027.1mb 42f 43f
5:18pm 14 20 mph 1027.2mb 42f 43f
5:12pm 18 21 mph 1027.2mb 42f 43f
5:06pm 17 21 mph 1027.3mb 42f 43f
5:00pm 18 21 mph 1027.3mb 42f 43f
4:54pm 17 20 mph 1027.4mb 41f 43f
4:48pm 17 21 mph 1027.4mb 41f 43f
4:42pm 15 20 mph 1027.5mb 41f 43f
4:36pm 18 22 mph 1027.4mb 41f 43f
4:30pm 16 20 mph 1027.4mb 41f 43f
4:24pm 16 21 mph 1027.6mb 41f 43f
4:00pm 18 22 mph 1027.8mb 41f 43f
3:54pm 20 22 mph 1027.7mb 41f 43f
3:48pm 18 22 mph 1027.7mb 41f 42f
3:42pm 18 21 mph 1027.7mb 41f 43f
3:36pm 16 22 mph 1027.7mb 41f 43f
3:30pm 17 20 mph 1027.8mb 41f 42f
3:24pm 16 23 mph 1027.9mb 41f 42f
3:18pm 16 21 mph 1027.9mb 41f 42f
3:12pm 21 24 mph 1028mb 41f 42f
3:06pm 17 22 mph 1027.9mb 41f 42f
3:00pm 20 22 mph 1028.1mb - 42f
2:54pm 18 22 mph 1028.2mb - 42f
2:48pm 18 24 mph 1028.3mb - 42f
2:42pm 22 25 mph 1028.3mb - 42f
2:36pm 21 24 mph 1028.3mb - 42f
2:30pm 20 22 mph 1028.4mb - 41f
2:24pm 20 24 mph 1028.5mb - 42f
2:18pm 21 25 mph 1028.5mb - 41f
2:12pm 21 23 mph 1028.7mb - 41f
2:06pm 18 23 mph 1028.7mb - 41f
2:00pm 21 25 mph 1028.8mb - 41f
1:54pm 21 25 mph 1029mb - 41f
1:48pm 18 23 mph 1029mb - 41f
1:42pm 20 22 mph 1029.2mb - 41f
1:36pm 21 24 mph 1029.2mb - 40f
1:30pm 20 24 mph 1029.4mb - 41f
1:24pm 21 23 mph 1029.5mb - 41f
1:18pm 18 22 mph 1029.6mb - 41f
1:12pm 18 24 mph 1029.8mb - 40f
1:06pm 21 23 mph 1029.8mb - 40f
1:00pm 21 22 mph 1029.9mb - 40f
12:54pm 18 22 mph 1030.1mb - 40f
12:48pm 18 23 mph 1030.3mb - 40f
12:42pm 18 23 mph 1030.5mb - 40f
12:36pm 20 23 mph 1030.6mb - 40f
12:30pm 18 21 mph 1030.7mb - 40f
12:24pm 18 22 mph 1030.9mb - 40f
12:18pm 18 23 mph 1031mb - 40f
12:12pm 18 22 mph 1031.2mb - 40f
12:06pm 18 22 mph 1031.4mb - 40f
12:00pm 18 22 mph 1031.4mb - 39f
11:54am 18 23 mph 1031.6mb - 40f
11:48am 18 22 mph 1031.7mb - 39f
11:42am 17 22 mph 1031.7mb - 40f
11:36am 20 24 mph 1031.9mb - 40f
11:30am 18 22 mph 1032mb - 40f
11:24am 18 23 mph 1032.1mb - 39f
11:18am 18 21 mph 1032.3mb - 39f
11:12am 17 21 mph 1032.3mb - 39f
11:06am 18 24 mph 1032.3mb - 39f
11:00am 18 22 mph 1032.5mb - 39f
10:54am 18 23 mph 1032.6mb - 39f
10:48am 20 22 mph 1032.6mb - 39f
10:42am 18 24 mph 1032.7mb - 39f
10:36am 17 22 mph 1032.7mb - 38f
10:30am 18 22 mph 1032.7mb - 38f
10:24am 21 24 mph 1032.7mb - 38f
10:00am 18 22 mph 1032.8mb - 38f
9:54am 18 22 mph 1032.9mb - 38f
9:48am 21 23 mph 1032.9mb - 38f
9:42am 20 22 mph 1032.8mb - 38f
9:36am 20 23 mph 1032.9mb - 38f
9:30am 21 24 mph 1032.8mb - 38f
9:24am 21 23 mph 1032.7mb - 38f
9:18am 21 25 mph 1032.7mb - 38f
9:12am 18 23 mph 1032.6mb - 38f
9:06am 21 24 mph 1032.5mb - 38f
9:00am 21 25 mph 1032.4mb - 38f
8:54am 21 25 mph 1032.3mb - 38f
8:48am 21 24 mph 1032.2mb - 38f
8:42am 20 24 mph 1032.3mb - 38f
8:36am 22 24 mph 1032.2mb - 37f
8:30am 20 24 mph 1032.2mb - 37f
8:24am 17 22 mph 1032.2mb - 37f
8:18am 18 23 mph 1032.2mb - 37f
8:12am 18 22 mph 1032.2mb - 37f
8:06am 18 22 mph 1032.3mb - 37f
8:00am 18 21 mph 1032.2mb - 37f
7:54am 20 24 mph 1032.3mb - 37f
7:48am 21 22 mph 1032.1mb - 37f
7:42am 21 23 mph 1032.1mb - 37f
7:36am 18 22 mph 1032mb - 37f
7:30am 18 22 mph 1032.2mb - 37f
7:24am 18 21 mph 1032.2mb - 37f
7:18am 18 22 mph 1032.2mb - -
7:12am 18 22 mph 1032.2mb - 37f
7:06am 20 22 mph 1032.2mb - 37f
6:54am 20 23 mph 1032.1mb - 37f
6:48am 17 22 mph 1032.1mb - 37f
6:42am 18 22 mph 1032mb - 37f
6:36am 17 21 mph 1032mb - 37f
6:30am 20 22 mph 1031.9mb - 37f
6:24am 17 22 mph 1031.8mb - 37f
6:18am 18 22 mph 1031.7mb - -
6:12am 17 20 mph 1031.9mb - 37f
6:06am 16 20 mph 1032mb - 37f
6:00am 17 20 mph 1032mb - 37f
5:54am 17 20 mph 1032.1mb - 37f
5:48am 16 20 mph 1032.1mb - 37f
5:42am 17 21 mph 1032mb - 37f
5:36am 17 22 mph 1032.1mb - 37f
5:30am 18 22 mph 1032mb - 37f
5:24am 16 21 mph 1032.1mb - 37f
5:18am 17 21 mph 1031.9mb - 37f
5:12am 18 22 mph 1031.7mb - 37f
5:06am 18 21 mph 1031.8mb - 37f
5:00am 20 22 mph 1031.8mb - 37f
4:54am 17 21 mph 1031.8mb - 37f
4:48am 17 22 mph 1031.9mb - -
4:42am 17 21 mph 1031.8mb - 37f
4:36am 18 22 mph 1032mb 41f 37f
4:30am 18 22 mph 1032mb 41f 37f
4:24am 20 22 mph 1031.9mb 41f 37f
4:18am 17 20 mph 1032.2mb - -
4:12am 16 22 mph 1032.1mb 41f 37f
4:06am 17 21 mph 1031.8mb 41f 37f
4:00am 17 20 mph 1032.5mb 41f 37f
3:54am 16 18 mph 1032.5mb 41f 37f
3:48am 18 20 mph 1032.3mb 41f 37f
3:42am 16 20 mph 1032.6mb - 37f
3:36am 18 21 mph 1032.7mb - 37f
3:30am 16 20 mph 1032.7mb - 36f
3:24am 16 21 mph 1032.8mb - 37f
3:18am 16 21 mph 1032.8mb - -
3:12am 17 21 mph 1032.7mb - 36f
3:06am 16 18 mph 1032.8mb - 36f
3:00am 17 20 mph 1032.8mb - 36f
2:54am 16 18 mph 1033.1mb - 36f
2:48am 17 20 mph 1033.1mb - 37f
2:42am 17 21 mph 1033.1mb - 36f
2:36am 18 20 mph 1033.3mb - 36f
2:30am 16 20 mph 1033.4mb - 36f
2:24am 17 22 mph 1033.3mb - 36f
2:18am 18 22 mph 1033.1mb - -
2:12am 18 21 mph 1033.2mb 41f 36f
2:06am 17 20 mph 1033.5mb 41f 37f
2:00am 16 20 mph 1033.8mb 41f 36f
1:54am 17 21 mph 1034mb 41f 37f
1:48am 18 21 mph 1034.2mb 41f 37f
1:42am 17 21 mph 1034.3mb 41f 36f
1:36am 17 21 mph 1034.4mb 41f 36f
1:30am 17 21 mph 1034.5mb 41f 36f
1:24am 17 21 mph 1034.3mb 41f 36f
1:18am 17 21 mph 1034.2mb 41f 36f
1:12am 20 22 mph 1034.2mb 41f 36f
1:06am 21 24 mph 1034.1mb 41f 36f
1:00am 18 21 mph 1034.4mb 41f 36f
12:54am 15 18 mph 1034.6mb 41f 36f
12:48am 17 20 mph 1034.7mb 41f 36f
12:42am 18 22 mph 1034.8mb 41f 36f
12:36am 16 22 mph 1034.9mb 41f 36f
12:30am 17 20 mph 1034.9mb 41f 36f
12:24am 18 21 mph 1034.9mb 41f 36f
12:18am 18 21 mph 1035.1mb 41f -
12:12am 17 21 mph 1035.2mb 41f 36f
12:06am 17 20 mph 1035.3mb 41f 36f
12:00am 16 18 mph 1035.4mb - 36f
Wed 01/17 11:54pm 16 21 mph 1035.5mb - 37f
11:48pm 15 18 mph 1035.6mb - -
11:42pm 16 18 mph 1035.8mb - -
11:36pm 16 18 mph 1035.8mb - -
11:30pm 15 18 mph 1036mb - 36f
11:24pm 15 18 mph 1036.1mb - 36f
11:18pm 15 17 mph 1036.3mb - 36f
11:12pm 15 16 mph 1036.4mb - 36f
11:06pm 15 16 mph 1036.5mb - 36f
11:00pm 14 16 mph 1036.5mb - 36f
10:54pm 14 16 mph 1036.6mb - 35f
10:48pm 14 16 mph 1036.7mb - 35f
10:42pm 14 17 mph 1036.8mb - 35f
10:36pm 14 16 mph 1036.9mb - 35f
10:30pm 15 17 mph 1036.9mb - 35f
10:24pm 14 18 mph 1037mb - 35f
10:18pm 15 17 mph 1037.1mb - 35f
10:12pm 15 16 mph 1037.1mb - 35f
10:06pm 14 18 mph 1037.1mb - 35f
10:00pm 15 18 mph 1037mb - 35f
9:54pm 15 18 mph 1037mb - 35f
9:48pm 16 20 mph 1037mb - -
9:42pm 15 16 mph 1037.1mb - 35f
9:36pm 15 17 mph 1037.1mb - 35f
9:30pm 13 16 mph 1037.1mb - 35f
9:24pm 15 16 mph 1037.2mb - 35f
9:18pm 13 15 mph 1037.3mb - -
9:12pm 14 16 mph 1037.3mb - 35f
9:06pm 14 16 mph 1037.3mb - 35f
9:00pm 15 17 mph 1037.3mb - 35f
8:54pm 14 16 mph 1037.3mb - 35f
8:48pm 14 16 mph 1037.4mb - 35f
8:42pm 15 17 mph 1037.3mb - 35f
8:36pm 14 16 mph 1037.4mb - 35f
8:30pm 15 16 mph 1037.5mb - 35f
8:24pm 14 16 mph 1037.3mb - 35f
8:18pm 15 17 mph 1037.4mb - -
8:12pm 16 18 mph 1037.4mb - 35f
8:06pm 16 18 mph 1037.4mb - 35f
8:00pm 17 20 mph 1037.4mb - 35f
7:54pm 17 21 mph 1037.4mb - 35f
7:48pm 17 21 mph 1037.3mb - -
7:42pm 16 17 mph 1037.2mb - 35f
7:36pm 16 18 mph 1037.2mb - 35f
7:18pm 14 16 mph 1036.9mb - -
7:12pm 15 17 mph 1036.8mb - 34f
7:06pm 16 17 mph 1036.8mb - 34f
7:00pm 16 18 mph 1036.8mb - 35f
6:54pm 16 18 mph 1036.7mb - 34f
6:48pm  -  mph 1036.7mb 41f 34f
6:42pm  -  mph 1036.6mb 41f 34f
6:36pm  -  mph 1036.6mb 41f 34f
6:30pm 14 15 mph 1036.6mb 41f 34f
6:24pm 13 15 mph 1036.5mb 41f 34f
6:18pm 13 15 mph 1036.4mb 42f 34f
6:12pm 11 14 mph 1036.5mb 42f 34f
6:06pm 11 15 mph 1036.3mb 42f 34f
6:00pm 13 15 mph 1036.3mb 42f 34f
5:54pm 14 16 mph 1036.3mb 42f 34f
5:48pm  -  mph 1036.2mb 42f -
5:42pm  -  mph 1036.4mb 42f -
5:36pm  -  mph 1036.2mb 42f -
5:30pm 15 20 mph 1036.2mb 42f 34f
5:24pm 14 20 mph 1036.1mb 42f 34f
5:18pm 16 17 mph 1036.1mb 42f 34f
5:12pm 14 16 mph 1036mb 42f 34f
5:06pm 14 18 mph 1036mb 43f 34f
5:00pm 16 20 mph 1036mb 43f 34f
4:54pm 15 17 mph 1036.1mb 43f 34f
4:48pm 15 18 mph 1036.3mb 42f 34f
4:42pm 15 18 mph 1036.4mb 42f 34f
4:36pm 14 17 mph 1036.5mb 42f 34f
4:30pm 15 18 mph 1036.4mb 42f 34f
4:24pm 14 17 mph 1036.4mb 42f 34f
4:18pm 14 17 mph 1036.4mb 42f 33f
4:12pm 16 18 mph 1036.4mb 42f 33f
4:06pm 14 17 mph 1036.5mb 42f 33f
4:00pm 13 17 mph 1036.4mb 41f 33f
3:54pm 15 17 mph 1036.6mb 41f 33f
3:48pm 14 16 mph 1036.7mb 41f 33f
3:36pm 14 16 mph 1036.7mb 41f 33f
3:30pm 13 15 mph 1036.8mb 41f 33f
3:24pm 14 16 mph 1036.9mb 41f 33f
3:18pm 14 16 mph 1036.9mb 41f -
3:12pm 14 18 mph 1037mb 41f 33f
3:06pm 14 16 mph 1037.1mb 41f 32f
3:00pm 14 17 mph 1037.2mb 41f 33f
2:54pm 13 16 mph 1037.4mb - 33f
2:48pm 13 16 mph 1037.6mb - 33f
2:42pm 10 16 mph 1037.5mb - 33f
2:36pm 13 16 mph 1037.6mb - 32f
2:30pm 14 16 mph 1037.6mb - 32f
2:24pm 14 16 mph 1037.8mb - 32f
2:18pm 13 16 mph 1037.8mb - -
2:12pm 11 17 mph 1037.9mb - 32f
2:06pm 14 16 mph 1038mb - 32f
2:00pm 14 17 mph 1038.2mb - 33f
1:54pm 16 18 mph 1038.3mb - 33f
1:48pm 14 18 mph 1038.4mb - 32f
1:42pm 15 18 mph 1038.5mb - 32f
1:36pm 15 18 mph 1038.5mb - 32f
1:30pm 15 18 mph 1038.7mb - 33f
1:24pm 15 20 mph 1038.8mb - 32f
1:18pm 14 21 mph 1038.9mb - 33f
1:12pm 17 22 mph 1039mb - 32f
1:06pm 15 20 mph 1038.9mb - 32f
1:00pm 16 22 mph 1039.1mb 41f 32f
12:54pm 18 22 mph 1039.2mb 41f 32f
12:48pm 18 23 mph 1039.3mb 41f 32f
12:42pm 21 24 mph 1039.4mb 41f 32f
12:36pm 21 24 mph 1039.4mb 41f 32f
12:30pm 17 23 mph 1039.5mb 41f 32f
12:24pm 20 22 mph 1039.7mb 41f 32f
12:18pm 17 25 mph 1039.9mb 41f -
12:12pm 18 23 mph 1039.9mb 41f -
12:06pm 18 23 mph 1040mb 41f -
12:00pm 18 24 mph 1040.1mb 41f 32f
11:54am 18 23 mph 1040.1mb - 32f
11:48am 21 24 mph 1040.1mb - 32f
11:42am 20 22 mph 1040.1mb - 32f
11:36am 20 24 mph 1040.2mb - 32f
11:30am 20 24 mph 1040.3mb - 32f
11:24am 21 23 mph 1040.5mb - 32f
11:18am 18 23 mph 1040.6mb - 32f
11:12am 17 23 mph 1040.8mb - 32f
11:06am 21 23 mph 1040.9mb - 32f
11:00am 21 24 mph 1041.1mb - 31f
10:54am 20 24 mph 1041.1mb - 32f
10:48am 18 23 mph 1041.1mb - -
10:42am 18 22 mph 1041.3mb - 32f
10:36am 22 23 mph 1041.2mb - 32f
10:30am 17 23 mph 1041.3mb - 32f
10:24am 18 23 mph 1041.4mb - 32f
10:00am 21 24 mph 1041.2mb - 32f
9:54am 21 25 mph 1041.1mb - 32f
9:48am 23 26 mph 1041.1mb - -
9:42am 21 25 mph 1041.2mb - 32f
9:36am 23 25 mph 1041.2mb - 32f
9:30am 21 24 mph 1041.1mb - 32f
9:24am 20 24 mph 1041.1mb - 32f
9:18am 20 24 mph 1041.1mb - -
9:12am 20 26 mph 1040.9mb - 32f
9:06am 23 26 mph 1040.7mb - 32f
9:00am 22 28 mph 1040.6mb - 31f
8:54am 22 28 mph 1040.4mb - 32f
8:48am 22 26 mph 1040.3mb - 32f
8:42am 22 25 mph 1040.3mb - 31f
8:36am 22 25 mph 1040.3mb - 31f
8:30am 20 25 mph 1040.1mb - 32f
8:24am 22 25 mph 1040.1mb - 31f
8:18am 22 25 mph 1040.1mb - 31f
8:12am 21 25 mph 1040.1mb - 31f
8:06am 22 26 mph 1040mb - 31f
8:00am 22 24 mph 1040mb - 31f
7:54am 22 24 mph 1040mb - 31f
7:48am 21 25 mph 1039.8mb - -
7:42am 21 25 mph 1040mb - 31f
7:36am 22 25 mph 1039.9mb - 31f
7:30am 20 23 mph 1039.8mb - 31f
7:24am 20 25 mph 1039.8mb - 31f
7:18am 22 24 mph 1039.6mb - 31f
7:12am 21 25 mph 1039.5mb - 31f
7:06am 22 24 mph 1039.4mb - 31f
7:00am 21 25 mph 1039.3mb - 31f
6:54am 21 24 mph 1039.2mb - 31f
6:48am 23 25 mph 1039.1mb - 31f
6:42am 22 25 mph 1039.2mb - 31f
6:36am 22 24 mph 1039.1mb - 31f
6:30am 22 24 mph 1039.1mb - 31f
6:24am 22 25 mph 1039mb - 31f
6:18am 21 28 mph 1039.1mb - 31f
6:12am 22 25 mph 1039.1mb - 31f
6:06am 22 25 mph 1039mb - 31f
6:00am 20 25 mph 1038.9mb - 31f
5:54am 22 24 mph 1038.8mb - 31f
5:48am 23 26 mph 1038.7mb - 31f
5:42am 24 28 mph 1038.5mb - 31f
5:36am 23 26 mph 1038.6mb - 31f
5:30am 21 23 mph 1038.6mb - 31f
5:24am 22 25 mph 1038.6mb - 31f
5:18am 22 24 mph 1038.4mb - 31f
5:12am 20 24 mph 1038.5mb - 31f
5:06am 22 25 mph 1038.4mb - 32f
5:00am 22 25 mph 1038.5mb - 31f
4:54am 20 23 mph 1038.4mb - 31f
4:48am 21 25 mph 1038.5mb - 31f
4:42am 22 24 mph 1038.5mb - 31f
4:36am 22 24 mph 1038.4mb - 31f
4:30am 20 22 mph 1038.5mb - 31f
4:24am 18 22 mph 1038.5mb - 31f
4:18am 20 23 mph 1038.5mb - 31f
4:12am 20 24 mph 1038.4mb - 31f
4:06am 22 26 mph 1038.5mb - 31f
4:00am 23 26 mph 1038.4mb - 31f
3:54am 22 29 mph 1038.4mb - 31f
3:48am 23 29 mph 1038.3mb - -
3:42am 24 29 mph 1038.3mb - 31f
3:36am 25 28 mph 1038.4mb - 31f
3:30am 22 25 mph 1038.3mb - 32f
3:24am 21 25 mph 1038.3mb - 31f
3:18am 21 24 mph 1038.4mb - 31f
3:12am 20 24 mph 1038.6mb - 31f
3:06am 21 23 mph 1038.4mb - 32f
3:00am 20 23 mph 1038.4mb - 32f
2:54am 22 26 mph 1038.4mb - 32f
2:48am 22 25 mph 1038.5mb - 32f
2:42am 21 25 mph 1038.5mb - 32f
2:36am 24 26 mph 1038.4mb - 32f
2:30am 22 24 mph 1038.6mb - 32f
2:24am 21 25 mph 1038.7mb - 32f
2:18am 20 24 mph 1038.9mb - 32f
2:12am 21 26 mph 1038.8mb 41f 32f
2:06am 21 28 mph 1038.8mb - 32f
2:00am 22 26 mph 1038.6mb - 32f
1:54am 21 24 mph 1038.8mb - 32f
1:48am 22 24 mph 1038.7mb - 31f
1:42am 22 25 mph 1038.7mb - 32f
1:36am 20 23 mph 1038.7mb - 32f
1:30am 21 23 mph 1038.7mb - 31f
1:24am 20 22 mph 1038.8mb - 32f
1:18am 20 22 mph 1038.8mb - 31f
1:12am 17 21 mph 1038.9mb - 31f
1:06am 17 21 mph 1039mb - 32f
1:00am 18 21 mph 1038.9mb - 31f
12:54am 18 21 mph 1038.9mb - 32f
12:48am 17 20 mph - - -
12:42am 16 20 mph - - -
12:36am 17 20 mph - - -
12:30am 16 21 mph 1039.1mb - 31f
12:24am 17 21 mph 1039mb - 31f
12:18am 17 21 mph 1039.1mb - 32f
12:12am 14 15 mph 1039.1mb - 31f
12:06am 13 15 mph 1039.3mb - 31f
12:00am 8 9 mph 1039.3mb - 31f
Tue 01/16 11:54pm 7 9 mph 1039.5mb - 31f
11:48pm 7 9 mph 1039.5mb - 31f
11:42pm 7 9 mph 1039.6mb - 31f
11:36pm 7 8 mph 1039.6mb - 31f
11:30pm 6 8 mph 1039.6mb - 31f
11:24pm 7 8 mph 1039.6mb - 31f
11:18pm 7 8 mph 1039.6mb - 31f
11:12pm 7 8 mph 1039.7mb - 31f
11:06pm 7 8 mph 1039.8mb - 31f
11:00pm 7 8 mph 1039.6mb - 31f
10:54pm 6 7 mph 1039.6mb - 31f
10:48pm 6 7 mph 1039.7mb - 31f
10:42pm 6 7 mph 1039.7mb - 31f
10:36pm 6 7 mph 1039.6mb - 31f
10:30pm 6 7 mph 1039.6mb - 31f
10:24pm 6 7 mph 1039.5mb - 31f
10:18pm 6 7 mph 1039.4mb - 31f
10:12pm 6 7 mph 1039.5mb - 31f
10:06pm 6 7 mph 1039.5mb - 31f
10:00pm 6 7 mph 1039.3mb - 31f
9:54pm 6 7 mph 1039mb - 31f
9:48pm 6 6 mph 1039.1mb - 31f
9:42pm 5 6 mph 1039.1mb - 31f
9:36pm 5 6 mph 1039.2mb - 31f
9:30pm 5 5 mph 1039.3mb - 31f
9:24pm 5 6 mph 1039.4mb - 30f
9:18pm 5 5 mph 1039.4mb - 31f
9:12pm 5 6 mph 1039.4mb - 30f
9:06pm 5 6 mph 1039.3mb - 31f
9:00pm 5 6 mph 1039.3mb - 30f
8:54pm 5 5 mph 1039.2mb - 30f
8:48pm 5 6 mph 1039.2mb - 30f
8:42pm 5 6 mph 1039mb - 30f
8:36pm 5 6 mph 1038.9mb - 30f
8:30pm 5 6 mph 1038.8mb - 30f
8:24pm 5 5 mph 1038.9mb - 30f
8:18pm 5 5 mph 1038.9mb - 30f
8:12pm 5 5 mph 1038.8mb - 30f
8:06pm 5 6 mph 1038.5mb - 30f
8:00pm 5 6 mph 1038.5mb - 30f
7:54pm 5 6 mph 1038.5mb - 30f
7:48pm 5 6 mph 1038.3mb - 30f
7:42pm 5 7 mph 1038mb - 30f
7:36pm 5 6 mph 1037.9mb - 30f
7:30pm 5 6 mph 1038mb - 30f
7:24pm 5 6 mph 1038mb - 30f
7:18pm 5 6 mph 1037.9mb - 30f
7:12pm 6 6 mph 1037.7mb - 30f
7:06pm 6 6 mph 1037.8mb - 30f
7:00pm 6 7 mph 1037.6mb - 30f
6:54pm 6 7 mph 1037.4mb - 30f
6:48pm 6 6 mph 1037.5mb - 30f
6:42pm 6 7 mph 1037.3mb - 31f
6:36pm 6 7 mph 1037.4mb - 30f
6:30pm 6 7 mph 1037.3mb - 31f
6:24pm 6 7 mph 1037.2mb - 31f
6:18pm 6 7 mph 1037.2mb - 31f
6:12pm 6 8 mph 1037mb - 30f
6:06pm 7 8 mph 1037.1mb - 31f
6:00pm 7 10 mph 1037.2mb - 31f
5:54pm 10 14 mph 1037mb - 31f
5:48pm 13 18 mph 1037.1mb - 31f
5:42pm 15 21 mph 1036.7mb - 31f
5:36pm 16 21 mph 1036.6mb - 31f
5:30pm 17 21 mph 1036.5mb - 31f
5:24pm 17 20 mph 1036.4mb - 31f
5:18pm 16 18 mph 1036.4mb - 31f
5:12pm 17 22 mph 1036.3mb - 31f
5:06pm 17 20 mph 1036.2mb - 31f
5:00pm 17 20 mph 1036.3mb - 31f
4:54pm 16 20 mph 1036.3mb - 31f
4:48pm 17 20 mph 1036.2mb - 30f
4:42pm 16 20 mph 1036.2mb - 31f
4:36pm 16 21 mph 1036.3mb - 30f
4:30pm 17 22 mph 1036.2mb - 31f
4:24pm 20 23 mph 1036mb - 31f
4:18pm 20 23 mph 1036.1mb - 31f
4:12pm 21 22 mph 1035.9mb - 31f
4:06pm 21 24 mph 1035.9mb - 31f
4:00pm 22 26 mph 1035.8mb - 31f
3:54pm 22 30 mph 1035.7mb - 31f
3:48pm 24 29 mph 1035.4mb - 31f
3:42pm 22 29 mph 1035.5mb - 31f
3:36pm 26 30 mph 1035.3mb - 32f
3:30pm 28 32 mph 1035.3mb - 32f
3:24pm 28 33 mph 1035.3mb - 32f
3:18pm 29 33 mph 1035.4mb - -
3:12pm 28 34 mph 1035.2mb - 32f
3:06pm 28 32 mph 1035mb - 31f
3:00pm 28 34 mph 1035.2mb - 31f
2:54pm 29 33 mph 1035.1mb - 31f
2:48pm 28 32 mph 1035.1mb - 31f
2:42pm 28 31 mph 1035.1mb - 31f
2:36pm 30 36 mph 1035.2mb - 31f
2:30pm 26 33 mph 1035.2mb - 32f
2:24pm 30 34 mph 1035.1mb - 32f
2:18pm 33 37 mph 1035mb - -
2:12pm 30 34 mph 1035.2mb - 32f
2:06pm 30 34 mph 1035.3mb - 32f
2:00pm 26 30 mph 1035.4mb - 33f
1:54pm 26 31 mph 1035.4mb - 33f
1:48pm 26 33 mph 1035.3mb - 33f
1:42pm 31 34 mph 1035.1mb - 33f
1:36pm 29 34 mph 1035.1mb - 33f
1:30pm 30 38 mph 1034.9mb 41f 35f
1:24pm 30 37 mph 1034.9mb 41f 35f
1:18pm 32 36 mph 1035mb 42f 35f
1:12pm 28 33 mph 1035.1mb 42f 35f
1:06pm 30 37 mph 1035mb 42f 36f
1:00pm 32 39 mph 1035mb 42f 36f
12:54pm 33 39 mph 1035mb 43f 36f
12:48pm 34 40 mph 1034.9mb 43f 36f
12:42pm 30 38 mph 1035.2mb 43f 36f
12:36pm 29 37 mph 1035.2mb 43f 35f
12:30pm 30 36 mph 1035.3mb 44f 35f
12:24pm 31 37 mph 1035.2mb 44f 35f
12:18pm 29 34 mph 1035.5mb 44f 36f
12:12pm 32 37 mph 1035.4mb 44f 36f
12:06pm 31 36 mph 1035.3mb 44f 36f
12:00pm 32 37 mph 1035.1mb 44f 36f
11:54am 29 32 mph 1035.3mb 45f 37f
11:48am 29 32 mph 1035.4mb 45f 36f
11:42am 29 34 mph 1035.6mb 45f 37f
11:36am 29 34 mph 1035.5mb 45f 37f
11:30am 28 32 mph 1035.7mb 45f 37f
11:24am 25 33 mph 1035.7mb 46f 38f
11:18am 29 33 mph 1035.3mb 46f 37f
11:12am 30 36 mph 1035.2mb 46f 38f
11:06am 29 36 mph 1035mb 46f 39f
11:00am 28 32 mph 1035mb 47f 38f
10:54am 28 37 mph 1034.9mb 47f 38f
10:48am 31 36 mph 1034.5mb 47f 38f
10:42am 31 39 mph 1034.3mb 47f 38f
10:36am 32 37 mph 1034.3mb 47f 38f
10:30am 33 40 mph 1034.4mb 48f 38f
10:24am 31 38 mph 1034.4mb 48f 38f
10:18am 33 38 mph 1034.2mb 48f 37f
10:12am 29 33 mph 1034.4mb 48f 38f
10:06am 31 36 mph 1034.2mb 48f 38f
10:00am 30 36 mph 1033.9mb 49f 38f
9:54am 30 36 mph 1033.9mb 49f 39f
9:48am 31 36 mph 1033.7mb 49f 38f
9:42am 29 36 mph 1033.6mb 49f 39f
9:36am 31 37 mph 1033.5mb 49f 39f
9:30am 30 36 mph 1033.2mb 50f 39f
9:24am 31 37 mph 1033.2mb 50f 39f
9:18am 30 37 mph 1033mb 50f 40f
9:12am 33 37 mph 1032.9mb 50f 39f
9:06am 29 37 mph 1032.8mb 50f 40f
9:00am 32 36 mph 1032.6mb 51f 40f
8:54am 31 34 mph 1032.5mb 51f 40f
8:48am 29 32 mph 1032.3mb 51f 40f
8:42am 30 33 mph 1032.2mb 52f 40f
8:36am 29 32 mph 1032mb 52f 40f
8:30am 30 38 mph 1031.9mb 52f 42f
8:24am 32 38 mph 1031.6mb 53f 42f
8:18am 33 38 mph 1031.5mb 53f 42f
8:12am 32 38 mph 1031.2mb 53f -
8:06am 30 38 mph 1031.1mb 54f -
8:00am 31 37 mph 1031mb 54f -
7:54am 29 36 mph 1030.9mb 55f -
7:48am 30 37 mph 1030.8mb 56f -
7:42am 30 37 mph 1030.6mb 56f -
7:36am 32 38 mph 1030.3mb 57f -
7:30am 29 37 mph 1030.3mb 58f -
7:24am 30 37 mph 1030.1mb 58f -
7:18am 30 36 mph 1030mb 58f -
7:12am 29 37 mph 1030mb 58f -
7:06am 29 37 mph 1029.8mb 59f -
7:00am 31 36 mph 1029.5mb 59f -
6:54am 31 37 mph 1029.5mb 59f -
6:48am 29 37 mph 1029.4mb 59f -
6:42am 31 37 mph 1029.1mb 59f -
6:36am 31 39 mph 1029mb 59f -
6:30am 33 40 mph 1028.8mb 59f -
6:24am 33 41 mph 1028.6mb 59f -
6:18am 34 40 mph 1028.5mb 59f -
6:12am 31 38 mph 1028.4mb 59f -
6:06am 33 40 mph 1028.1mb 59f -
6:00am 32 39 mph 1028.1mb 59f -
5:54am 31 40 mph 1028mb 59f -
5:48am 31 36 mph 1027.8mb 59f -
5:42am 31 37 mph 1027.6mb 59f -
5:36am 31 39 mph 1027.2mb 59f -
5:30am 34 40 mph 1026.8mb 59f -
5:24am 34 39 mph 1026.6mb 59f -
5:18am 14 17 mph 1026.3mb 60f 60f
5:12am 6 7 mph 1025.8mb 60f 61f
5:06am 3 3 mph 1025.6mb 60f 61f
5:00am 3 5 mph 1025.5mb 60f 61f
4:54am 5 5 mph 1025.5mb 60f 61f
4:48am 3 6 mph 1025.4mb 60f 62f
4:42am 5 7 mph 1025.2mb 60f 62f
4:36am 6 7 mph 1025.1mb 60f 62f
4:30am 5 6 mph 1025.3mb 60f 61f
4:24am 5 5 mph 1025.3mb 60f 61f
4:18am 5 6 mph 1025.4mb 60f 61f
4:12am 5 6 mph 1025.3mb 60f 61f
4:06am 5 5 mph 1025.3mb 60f 62f
4:00am 3 5 mph 1025.2mb 60f 61f
3:54am 5 5 mph 1025.1mb 60f 61f
3:48am 3 3 mph 1025.1mb 60f 61f
3:42am 3 3 mph 1025mb 60f 61f
3:36am 3 3 mph 1025mb 60f 61f
3:30am 3 5 mph 1024.9mb 60f 61f
3:24am 5 5 mph 1024.9mb 60f 62f
3:18am 5 5 mph 1024.9mb 60f 62f
3:12am 5 5 mph 1024.8mb 60f 62f
3:06am 3 5 mph 1024.9mb 60f 62f
3:00am 5 5 mph 1024.9mb 60f 61f
2:54am 5 5 mph 1024.9mb 60f 61f
2:48am 5 6 mph 1024.9mb 60f 61f
2:42am 5 6 mph 1024.9mb 60f 61f
2:36am 5 5 mph 1024.8mb 60f 61f
2:30am 5 6 mph 1024.8mb 60f 62f
2:24am 5 6 mph 1024.7mb 60f 62f
2:18am 6 7 mph 1024.7mb 60f 62f
2:12am 7 7 mph 1024.7mb 60f 62f
2:06am 6 7 mph 1024.7mb 60f 62f
2:00am 7 8 mph 1024.7mb 60f 62f
1:54am 7 8 mph 1024.6mb 60f 62f
1:48am 7 9 mph 1024.6mb 60f 62f
1:42am 8 9 mph 1024.6mb 60f 63f
1:36am 8 9 mph 1024.6mb 61f 63f
1:30am 8 9 mph 1024.6mb 61f 63f
1:24am 8 10 mph 1024.5mb 61f 63f
1:18am 8 10 mph 1024.4mb 61f 63f
1:12am 9 11 mph 1024.3mb 61f 63f
1:06am 10 11 mph 1024.3mb 61f 63f
1:00am 10 13 mph 1024.2mb 61f 63f
12:54am 10 11 mph 1024.2mb 61f 63f
12:48am 10 11 mph 1024.2mb 61f 63f
12:42am 10 13 mph 1024.2mb 61f 64f
12:36am 10 11 mph 1024.3mb 61f 64f
12:12am 11 14 mph 1024.3mb 61f 63f
12:06am 11 14 mph 1024.3mb 61f 63f
Mon 01/15 11:54pm 11 13 mph 1024.4mb 61f 63f
11:48pm 11 14 mph 1024.4mb 61f -
11:42pm 10 13 mph 1024.5mb 61f -
11:36pm 10 13 mph 1024.5mb 61f -